STARLINK-33544 (62281 NORAD) Tracking and Keplerian Element Data

This shows tracking and keplerian element data for the satellite.

Feedback or suggestion? Click here.




ElementValue
Catalog62281
NameSTARLINK-33544
Epoch Orbit1019
Epoch Day35.12453251
Epoch Year2025
RAAN310.9642
Inclination43.0039
Eccentricity0.0001771
Argument of Perigee262.9008
Mean Anonmoly97.1647
Mean Motion15.40683181
Decay Rate6.85E-06
L11 62281U 24237Q 25035.12453251 .00000685 00000+0 23681-4 0 9997
L22 62281 43.0039 310.9642 0001771 262.9008 97.1647 15.40683181 10190



Live tracking and technical data element details for STARLINK-33544 (NORAD 62281). STARLINK-33544 can be tracked NOW for your location showing map with azimuth and elevation plus other details from your city location.







IsCatalogInMostPopularTable: catalog: 62281, numindb: 24
Update: records affected: 1



GetName: 62281 STARLINK-33544

Hit Count: updated at: Mon, 19 May 2025 01:40:08 GMT